Dewpoint
30 27 24 24 25 22 21 21 21 22 23 23 23 22 21 21 22 22 22 21 21 20 20 20 22 28 31 34 35 42 50 53 53 58 58 59 60 61 62 65 62 64 64 63
27 25 26 27 26 25 25 24 23 23 23 21 20 20 23 25 25 25 24 23 23 24 23 21 22 28 35 33 36 39 48 51 53 55 58 58 59 60 61 64 64 62 64 63
25 21 26 27 26 25 25 24 23 22 22 24 24 22 21 23 25 27 28 30 31 29 27 26 24 27 33 38 37 39 45 50 53 53 57 59 59 59 59 61 64 61 63 63
27 27 25 25 25 26 23 24 24 24 23 20 25 17 21 25 30 32 34 34 36 37 35 29 27 27 32 38 40 41 44 50 52 54 54 56 56 56 58 60 61 62 62 64
22 25 24 24 24 24 22 26 26 27 27 26 22 22 20 26 31 32 35 35 37 38 38 33 30 30 33 36 40 46 47 50 52 53 54 55 55 56 58 59 62 61 62 64
26 27 26 26 27 27 27 29 30 30 28 19 19 21 19 27 32 32 36 37 38 38 38 41 34 34 38 39 43 48 51 52 53 54 56 56 56 56 59 60 60 61 61 62
23 25 29 31 29 32 32 28 18 17 16 15 20 23 21 31 32 35 35 36 37 40 40 43 40 38 40 43 47 50 51 51 53 54 55 56 57 58 58 59 59 60 61 61
21 18 29 34 33 31 31 27 20 14 16 19 26 18 21 34 33 35 35 36 37 38 42 43 44 43 41 44 47 49 50 49 52 53 54 54 57 58 59 60 59 59 60 60
23 23 28 33 36 35 29 27 31 26 25 23 22 23 26 30 33 34 34 35 35 37 39 43 44 44 44 45 46 49 50 50 53 53 54 55 57 59 59 60 60 60 59 60
30 23 28 33 37 37 33 35 26 27 18 16 18 22 25 30 31 33 33 33 35 37 40 43 44 45 46 47 49 49 50 50 53 55 56 56 57 58 57 60 60 60 60 60
32 29 28 32 32 31 32 30 31 30 27 20 19 21 33 32 33 32 32 34 36 42 44 43 44 46 47 48 49 47 50 51 53 54 56 56 57 56 56 57 60 60 60 60
33 31 26 29 33 33 33 32 31 24 21 23 24 23 33 35 35 33 33 34 42 47 47 45 46 48 48 49 50 51 52 53 53 57 56 55 55 56 57 59 59 60 59 60
32 28 22 24 28 30 32 31 31 30 29 22 21 22 32 35 34 34 33 37 41 44 48 49 49 50 49 49 48 54 56 57 57 58 57 57 57 57 59 59 59 60 60 60
35 31 27 23 28 31 28 29 29 28 23 25 26 27 31 32 32 32 32 38 40 41 43 45 47 49 50 50 53 55 56 56 56 56 56 56 57 58 59 59 59 60 60 60
31 29 31 32 32 30 29 28 28 27 28 25 28 29 31 33 33 33 34 37 38 40 41 42 43 45 46 48 49 50 51 52 53 53 52 53 54 54 56 57 57 58 59 59
29 26 28 28 30 28 27 29 29 29 28 28 29 30 34 35 35 34 35 37 37 38 39 40 41 42 43 45 47 48 48 49 49 49 49 50 50 50 50 51 51 52 53 54
28 26 25 20 23 23 20 28 29 30 30 29 28 31 34 34 34 35 36 37 37 38 38 39 40 41 42 43 43 45 46 47 46 47 47 48 48 48 48 48 48 48 48 48
28 26 25 20 19 11 23 32 31 31 31 32 31 31 34 35 36 36 36 37 37 37 37 38 39 40 40 40 41 42 43 44 44 44 45 46 46 45 45 46 46 46 47 47
29 27 21 19 20 22 26 29 30 28 27 33 31 31 33 35 34 34 36 37 37 37 37 38 39 39 39 40 40 40 40 41 42 42 43 43 43 43 42 42 43 43 43 44
28 27 23 20 18 12 21 29 31 31 23 33 32 32 33 32 28 33 36 36 37 37 37 37 38 38 39 39 40 39 39 39 39 40 41 41 42 41 41 40 40 41 41 42
19 21 20 21 18 19 24 29 30 20 20 33 34 34 33 31 34 35 36 35 36 35 36 36 36 36 37 39 39 38 38 38 39 39 39 39 39 39 40 39 39 39 39 39
17 16 19 20 17 4 28 29 25 25 34 34 35 35 35 35 35 35 35 35 34 34 34 34 33 33 34 35 38 37 37 38 38 38 38 37 38 38 38 37 37 37 37 37
17 20 18 19 14 23 30 29 31 35 34 35 35 36 36 35 35 35 34 34 34 33 33 33 33 33 33 33 34 34 35 35 35 36 36 38 38 38 38 37 36 36 37 36
23 25 23 23 21 25 31 34 36 35 35 36 36 37 37 35 36 35 34 34 34 33 33 33 34 33 33 33 33 33 34 34 33 33 33 34 35 35 37 38 38 38 37 38
22 25 23 23 24 30 31 34 36 37 37 36 37 37 37 36 36 36 35 34 34 34 33 33 33 33 33 33 33 32 33 33 33 33 33 32 32 32 32 33 34 35 36 37
25 23 17 8 22 21 24 32 36 37 37 37 37 37 37 37 36 36 35 35 34 34 33 33 33 33 33 33 32 32 32 32 32 31 31 32 30 31 31 31 31 33 34 35
Wind_Speed
1 2 13 16 13 9 4 9 19 20 18 16 21 33 35 34 25 28 28 28 30 32 34 27 26 21 24 25 26 25 22 21 18 10 12 8 14 16 16 15 19 21 21 23
0 13 17 12 11 13 14 16 22 20 14 9 23 40 39 37 31 26 27 27 29 30 30 28 25 24 22 27 27 27 25 23 23 18 16 9 13 15 20 21 23 23 23 24
9 6 4 7 10 11 14 15 18 19 18 16 18 18 6 7 6 8 11 18 24 29 33 28 24 25 21 27 29 27 27 27 25 23 16 11 13 4 12 16 16 23 23 23
10 12 11 9 11 10 17 12 20 15 9 7 5 12 6 6 5 7 20 23 20 23 24 26 24 23 24 24 26 28 28 29 27 25 23 23 21 20 17 21 22 22 24 18
6 4 3 6 9 9 9 1 9 12 14 14 4 8 9 7 16 32 28 28 26 24 20 21 25 26 25 23 23 25 27 27 29 27 26 23 22 19 19 20 19 27 27 25
14 3 6 9 10 12 10 13 12 11 7 6 7 10 8 7 20 31 28 29 30 24 20 19 22 21 21 20 21 23 24 24 28 25 25 25 23 20 19 23 25 24 26 26
6 4 4 4 6 1 3 4 4 2 2 5 6 7 12 11 22 24 28 28 27 21 19 17 16 19 20 20 21 21 22 24 22 24 24 24 23 23 24 26 28 27 27 27
3 4 5 5 5 2 3 4 2 4 3 7 7 7 10 7 27 27 27 26 25 24 19 17 16 17 21 20 21 23 23 24 22 23 23 21 22 23 24 23 27 29 27 30
2 5 1 5 6 3 2 5 5 5 5 5 5 6 5 26 36 35 34 32 30 26 23 21 19 17 19 20 23 24 25 26 23 23 22 22 21 18 23 23 25 26 30 28
1 5 2 4 2 8 6 5 2 2 7 7 8 8 18 37 40 38 37 34 35 30 19 14 13 13 14 14 15 15 21 23 21 22 21 23 24 18 9 13 28 23 18 21
3 1 7 1 5 7 2 3 2 1 3 4 8 4 14 32 35 32 34 33 32 26 18 12 8 10 11 9 11 13 9 14 19 23 19 19 20 20 12 8 20 23 19 19
3 0 3 2 4 6 1 3 4 5 7 4 4 7 18 29 31 27 33 34 26 14 6 3 3 6 3 3 6 7 18 28 26 20 20 16 12 13 14 20 17 20 20 20
1 3 3 3 5 5 6 10 6 1 2 11 5 11 23 28 31 33 31 31 25 28 21 12 7 6 3 4 17 18 13 11 12 16 16 14 15 17 13 15 20 20 20 19
1 4 6 6 3 4 5 12 15 4 4 4 6 17 25 32 32 39 37 31 28 27 28 22 18 8 5 9 15 14 15 16 19 20 18 16 9 17 16 15 16 15 15 16
1 5 5 7 6 5 7 8 9 13 4 6 9 13 21 26 28 29 27 33 32 30 24 18 26 24 26 24 23 22 21 23 21 23 22 22 22 19 19 19 16 14 11 12
2 4 3 2 3 9 7 10 6 6 5 2 5 3 11 18 24 28 31 31 31 29 30 28 28 30 29 28 26 26 25 24 24 24 24 23 23 23 22 20 19 16 13 11
2 2 1 2 4 4 3 2 4 3 4 3 6 3 2 12 21 26 24 26 26 26 27 29 30 29 29 28 25 26 25 24 26 24 21 22 21 21 20 20 21 19 18 16
1 2 1 3 5 2 3 5 4 2 2 6 7 8 5 1 3 17 21 21 23 25 26 26 24 26 26 23 24 24 23 21 23 23 21 19 20 18 15 16 17 16 15 15
2 4 2 2 2 6 4 5 2 0 0 3 6 10 4 4 3 7 17 17 16 17 18 18 17 18 20 22 20 22 25 25 25 24 21 19 18 18 18 19 17 14 13 14
4 2 2 2 3 3 2 4 3 3 1 2 1 4 9 5 13 9 15 15 15 15 17 19 19 21 25 23 18 23 24 23 23 20 18 17 17 17 16 14 15 13 13 12
1 1 4 3 4 7 6 6 4 1 2 7 6 4 3 7 3 1 7 11 12 13 15 13 22 22 18 17 16 24 20 23 16 17 16 18 18 17 16 15 13 11 12 13
5 4 5 2 3 6 8 5 6 3 7 10 9 8 10 10 5 2 5 8 11 15 16 17 20 18 15 16 16 17 22 15 14 16 17 17 17 14 13 15 13 14 14 14
5 7 2 9 6 3 9 4 4 8 8 7 9 9 11 11 7 6 4 5 5 9 11 12 14 17 19 20 21 21 16 14 16 20 18 17 17 16 15 17 15 13 14 13
4 5 5 2 4 14 10 7 6 9 9 10 9 13 12 9 10 9 7 6 5 5 5 5 10 13 13 9 12 15 14 12 15 16 16 15 14 14 13 13 14 13 13 11
6 8 7 8 11 5 12 13 12 10 7 10 9 10 9 7 6 5 5 4 3 3 2 4 7 8 8 11 15 13 12 12 14 14 11 13 13 14 12 12 12 10 10 10
13 12 13 11 11 10 5 23 15 16 14 12 11 7 7 9 8 6 5 5 5 5 4 4 3 3 2 5 7 7 8 9 7 8 9 10 10 9 9 8 8 10 13 13
Wind_Direction
68 202 227 220 209 224 255 265 272 267 272 292 272 279 286 285 276 267 264 261 261 261 263 260 250 239 222 220 226 228 223 216 212 186 190 195 189 201 203 182 187 190 188 186
112 257 248 233 231 241 256 270 276 287 274 290 285 284 288 281 271 262 265 269 265 266 263 255 246 240 206 220 221 221 222 217 212 199 190 184 191 204 201 199 196 191 193 188
218 237 88 198 242 249 249 249 271 267 307 287 294 288 335 323 329 321 285 281 285 279 273 258 243 237 227 207 218 220 217 214 212 206 187 189 191 208 204 204 191 195 196 194
248 250 256 263 262 234 274 254 254 275 314 299 35 295 302 335 336 325 318 305 296 289 288 261 244 235 234 219 211 217 211 210 211 202 204 196 200 199 197 198 200 189 195 195
252 264 307 294 251 181 243 285 268 264 260 291 280 243 274 307 339 343 333 323 314 295 272 264 239 231 232 232 216 212 214 208 208 204 201 205 204 202 197 198 192 198 193 186
253 242 272 241 263 227 265 291 270 258 259 251 233 201 290 355 339 330 326 319 319 288 282 281 245 242 239 226 216 210 203 202 208 196 201 200 209 207 195 194 202 196 193 192
322 238 270 236 292 159 182 311 312 295 242 239 184 183 267 316 353 332 323 320 321 305 281 288 265 241 238 218 204 206 204 204 201 202 207 206 208 213 211 204 198 192 192 191
338 281 193 163 223 270 248 184 234 276 273 295 201 318 324 343 340 333 328 319 319 318 299 279 268 255 234 218 204 203 203 207 197 199 210 209 211 224 216 212 205 198 193 183
242 274 224 234 225 180 229 225 204 269 246 277 298 320 315 342 335 335 333 327 318 308 300 279 270 264 247 221 208 199 199 202 192 200 204 201 190 203 214 205 197 195 196 185
226 296 303 290 225 210 225 317 291 266 359 327 336 353 322 334 332 332 331 325 315 299 281 276 277 277 275 248 222 205 201 199 197 192 191 192 191 184 170 209 184 176 168 168
207 215 322 277 2 344 318 326 259 310 37 328 318 347 344 329 325 328 323 323 311 300 285 243 241 252 248 263 251 225 255 220 220 207 190 182 192 185 181 169 165 166 164 163
233 266 332 4 342 308 278 347 29 45 355 333 299 317 338 331 331 333 331 332 338 1 318 236 225 272 151 241 306 257 226 243 210 183 172 173 191 196 183 182 168 158 165 176
210 22 351 38 324 14 17 353 5 74 66 13 357 318 325 335 344 344 346 344 8 34 43 46 66 103 135 275 270 210 126 124 171 187 169 163 175 186 192 168 152 160 159 165
182 52 71 107 95 295 21 22 24 81 78 313 358 319 342 346 349 346 350 358 23 33 39 28 27 39 137 66 70 70 86 78 80 77 94 110 168 180 175 134 136 144 149 157
70 68 82 104 127 74 43 28 22 62 47 53 333 348 344 346 350 347 345 3 19 30 36 37 40 41 44 50 58 55 58 64 61 66 65 61 60 59 80 96 106 107 138 147
30 138 129 113 151 78 52 20 20 49 5 299 339 23 358 349 353 357 2 6 12 26 31 34 36 43 37 43 50 55 58 59 63 60 61 61 61 55 60 62 64 66 77 72
39 112 140 264 286 279 274 334 36 99 16 314 9 291 349 357 5 358 358 359 13 22 26 31 34 38 34 36 40 50 55 58 61 62 59 61 64 68 72 74 72 68 65 65
126 110 100 287 342 282 196 235 202 315 47 346 343 324 237 267 306 12 5 3 10 17 22 30 33 36 37 39 42 51 51 56 62 56 56 61 66 64 62 75 80 80 82 85
108 143 172 223 258 298 267 240 181 23 314 7 357 6 350 255 311 14 13 17 11 11 18 22 31 41 42 41 41 52 53 51 54 52 50 49 52 57 52 55 55 49 69 77
106 85 174 180 245 254 239 165 170 140 285 128 146 22 27 54 50 359 1 16 21 24 24 26 28 37 38 27 38 54 51 52 48 48 49 51 56 60 63 66 70 71 71 68
288 285 209 201 258 278 237 176 147 248 236 156 136 119 138 82 101 332 16 32 38 39 40 33 48 46 34 31 43 54 51 51 42 50 52 52 50 53 54 51 44 57 72 75
209 204 208 171 246 288 160 130 193 182 147 152 147 146 128 125 132 94 44 37 39 46 39 46 56 49 41 39 60 58 49 33 44 51 48 48 48 50 58 64 59 53 46 45
238 198 238 207 231 248 200 213 226 179 164 174 153 167 155 153 167 154 120 76 55 61 51 49 58 54 37 37 42 50 36 38 48 52 44 41 43 37 38 51 48 48 47 46
242 191 227 287 246 231 230 237 231 197 194 179 175 172 173 152 157 151 148 137 113 90 80 70 69 61 51 44 60 54 42 44 53 55 45 39 43 42 37 44 41 38 30 30
225 165 216 258 268 270 244 223 204 199 191 171 168 178 174 154 170 175 172 162 138 112 79 58 63 59 43 36 45 43 30 32 44 44 37 40 41 39 36 43 47 48 35 30
190 192 191 222 215 201 230 202 196 192 196 193 181 175 180 182 190 187 194 187 179 173 165 150 142 109 76 59 55 41 40 36 46 52 36 42 38 33 27 22 16 29 25 21